Location: Blackwall
(51.5097°N, 0.0016°W)
Time: 22:47:41
(UTC+00:00)

Helios 1B rocket - Pass Details

Date: 15 May 2026
Orbit: 459 x 466 km, 98.2° (Epoch: 6 June)

Event Time Altitude Azimuth Distance (km) Brightness Sun altitude
Exits shadow 21:22:29 - 95° (E) 1,708 4.4 -11.8°
Reaches altitude 10° 21:22:45 10° 92° (E) 1,642 4.4 -11.9°
Maximum altitude 21:24:40 14° 59° (ENE) 1,408 4.4 -12.1°
Drops below altitude 10° 21:26:36 10° 26° (NNE) 1,652 5.1 -12.2°
Sets 21:29:23 0° 1° (N) 2,528 6.7 -12.5°
